Regional Weather Roundup
Issued by NWS

Home | Current Version | Previous Version | Graphics & Text | Print | Product List | Glossary Off
Versions: 1 2 3 4 5 6 7 8 9 10 11 12 13 14 15 16 17 18 19 20 21 22 23 24 25 26 27 28 29 30 31 32 33 34 35 36 37 38 39 40 41 42 43 44 45 46 47 48 49 50

000
ASUS43 KLOT 280621
RWRIL

ILLINOIS REGIONAL WEATHER ROUNDUP
NATIONAL WEATHER SERVICE CHICAGO/ROMEOVILLE IL
100 AM CDT THU MAY 28 2015

NOTE: "FAIR" INDICATES FEW OR NO CLOUDS BELOW 12,000 FEET WITH NO
SIGNIFICANT WEATHER AND/OR OBSTRUCTIONS TO VISIBILITY.

* THESE STATIONS ARE NOT UNDER NWS QUALITY CONTROL. THEY ALSO MAY NOT
  REPORT WEATHER SUCH AS PRECIPITATION OR FOG.

ILZ001-002-007-009-015-016-024-280700-
NORTHWEST ILLINOIS

CITY           SKY/WX    TMP DP  RH WIND       PRES   REMARKS
MOLINE         CLEAR     62  57  83 CALM      30.14R
6HR MIN TEMP:  59; 6HR MAX TEMP:  77;

STERLING*      CLEAR     59  55  88 CALM      30.16R
SAVANNA*       CLEAR     63  59  88 CALM      30.14R
$$

ILZ003-004-008-010-011-017-018-280700-
NORTH CENTRAL ILLINOIS

CITY           SKY/WX    TMP DP  RH WIND       PRES   REMARKS
ROCKFORD       CLEAR     59  56  89 S3        30.15R
6HR MIN TEMP:  59; 6HR MAX TEMP:  75;

FREEPORT*      CLEAR     63  56  80 S8        30.16R
ROCHELLE*      CLEAR     58  56  94 S3        30.16R
DE KALB*       CLEAR     57  53  88 SW6       30.16S
PERU*          CLEAR     63  58  83 S3        30.16R
$$

ILZ005-006-012>014-019>023-280700-
NORTHEAST ILLINOIS

CITY           SKY/WX    TMP DP  RH WIND       PRES   REMARKS
CHICAGO-OHARE  CLEAR     60  54  80 S6        30.14R
6HR MIN TEMP:  60; 6HR MAX TEMP:  73;

CHICAGO-MIDWAY FAIR      64  56  75 CALM      30.14R
6HR MIN TEMP:  64; 6HR MAX TEMP:  75;

AURORA         CLEAR     58  54  86 CALM      30.16R
6HR MIN TEMP:  57; 6HR MAX TEMP:  73;

LANSING*       CLEAR     55  52  90 CALM      30.16R
JOLIET*        CLEAR     57  56  97 CALM      30.16R
WAUKEGAN       CLEAR     57  55  93 SW3       30.13S
6HR MIN TEMP:  56; 6HR MAX TEMP:  68;

DUPAGE AIRPORT CLEAR     57  55  93 CALM      30.14R
6HR MIN TEMP:  56; 6HR MAX TEMP:  73;

KANKAKEE*      CLEAR     58  54  85 CALM      30.17R
WHEELING       CLEAR     57  54  89 CALM      30.15S
6HR MIN TEMP:  56; 6HR MAX TEMP:  73;

MORRIS*        CLEAR     61  56  84 CALM      30.13F
ROMEOVILLE*    CLEAR     58  53  84 S6        30.16R
NORTHERLY ISL    N/A     61  54  77 S2          N/A
$$

LMZ740>746-280700-
SOUTHERN LAKE MICHIGAN

STATION/POSITION SKY/WX   TEMP    WIND        PRES    VSBY  WAVE
                          AIR SEA DIR/SP/G                  HT/PER
                          (F)     (DEG/KT/KT) (MB)    (MI)  (FT/S)
SOUTHERN BUOY              44 38  190/  6/  6 1020.7S         0
HARRISON CRIB              64     190/ 10/ 10   N/A
BURNHAM HARBOR             62     190/  4       N/A
CALUMET HARBOR             62     180/  2/  3   N/A
BURNS HARBOR               61     180/  2/  3 1021.0S
MICHIGAN CITY              59     130/  6/  7   N/A
MICHIGAN CITY 6N           55 53  200/  4/  6   N/A           0
ST. JOSEPH                 56 56  200/  4/  4   N/A           0
$$

ILZ025>027-034>036-040-047-049-050-058-095>099-280700-
WEST-CENTRAL ILLINOIS

CITY           SKY/WX    TMP DP  RH WIND       PRES   REMARKS
QUINCY         CLEAR     66  56  70 SE6       30.15R
GALESBURG*     PTCLDY    60  57  91 CALM      30.16R
MACOMB*        PTCLDY    61  59  92 CALM      30.18R
JACKSONVILLE*  CLEAR     63  59  89 CALM      30.16R
PITTSFIELD*    CLEAR     62  59  90 CALM      30.17R
$$

ILZ028>032-037-038-041>044-048-051>054-059>061-280700-
CENTRAL ILLINOIS

CITY           SKY/WX    TMP DP  RH WIND       PRES   REMARKS
PONTIAC        CLEAR     59  57  91 CALM      30.17R
BLOOMINGTON    PTCLDY    61  56  83 CALM      30.18R
DECATUR        CLEAR     61  57  87 NE6       30.16R
PEORIA         CLEAR     63  57  81 CALM      30.16R
6HR MIN TEMP:  63; 6HR MAX TEMP:  80;

LACON*         CLEAR     58  56  92 CALM      30.15R
LINCOLN*       PTCLDY    63  57  81 CALM      30.15R
SPRINGFIELD    PTCLDY    60  57  89 CALM      30.16R
6HR MIN TEMP:  59; 6HR MAX TEMP:  79;

TAYLORVILLE    CLEAR     61  59  94 CALM      30.16R
$$

ILZ033-039-045-046-055>057-062-063-280700-
EAST-CENTRAL ILLINOIS

CITY           SKY/WX    TMP DP  RH WIND       PRES   REMARKS
CHAMPAIGN      CLEAR     61  53  75 E6        30.16R
DANVILLE*      CLEAR     60  56  85 CALM      30.14R
RANTOUL*       CLEAR     63  55  77 N3        30.16S
PARIS*         CLEAR     60  56  87 N5        30.16S
$$

ILZ079-100>102-280700-
SOUTHWEST ILLINOIS

CITY           SKY/WX    TMP DP  RH WIND       PRES   REMARKS
ALTON          CLEAR     65  63  96 CALM      30.16R
BELLEVILLE     CLEAR     62  62  99 CALM      30.14R
CAHOKIA*       PTCLDY    62  59  90 CALM      30.14R
SPARTA*        MOCLDY    66  62  85 CALM      30.15R
$$

ILZ064>066-069>071-074>076-080>082-084>086-088>090-092>094-280700-
SOUTH-CENTRAL ILLINOIS

CITY           SKY/WX    TMP DP  RH WIND       PRES   REMARKS
CARBONDALE     CLOUDY    71  67  87 CALM      30.15R
6HR MIN TEMP:  69; 6HR MAX TEMP:  78;

CAIRO*         PTCLDY    69  68  96 S5        30.15S
EFFINGHAM*     CLEAR     61  58  90 CALM      30.17R
MARION         CLOUDY    70  68  94 CALM      30.15S
MT. VERNON     MOCLDY    64  59  82 CALM      30.16R VSB 1
CENTRALIA*     PTCLDY    62  59  92 CALM      30.15R
SALEM*         CLOUDY    69  61  75 CALM      30.15R
METROPOLIS*    MOCLDY    67  67 100 CALM      30.14F
$$

ILZ067-068-072-073-078-083-087-091-280700-
SOUTHEAST ILLINOIS

CITY           SKY/WX    TMP DP  RH WIND       PRES   REMARKS
LAWRENCEVILLE  MOCLDY    67  63  87 SW6       30.15R
FLORA*         MOCLDY    65  61  86 CALM      30.15S
FAIRFIELD*     MOCLDY    68  68  99 CALM      30.14R
HARRISBURG*    MOCLDY    66  66 100 CALM      30.16S
ROBINSON*      MOCLDY    66  60  81 CALM      30.15S
CARMI*         MOCLDY    64  61  88 CALM      30.15R
$$

ABBREVIATIONS USED IN REMARKS
   TC - TEMPERATURE IN CELSIUS
  WCI - WIND CHILL INDEX
   HX - HEAT INDEX
  VSB - VISIBILITY
$$




USA.gov is the U.S. government's official web portal to all federal, state and local government web resources and services.